Home   Weather   Mexicali   Past weeks

Flag for Mexico Past Weather in Mexicali, Baja California, Mexico — Yesterday and Last 2 Weeks

Now
64 °F

Sunny.


Feels Like: 64 °F
Forecast: 48 / 64 °F
Wind: 22 mph from West

Location: Imperial County Airport

Current Time: Jan 21, 2017 at 1:41:56 pm

Latest Report: Jan 21, 2017 at 12:53 pm


Visibility: 10 mi

Pressure: 29.87 "Hg

Humidity: 45%

Dew Point: 42 °F

Location of MexicaliLocation

Past Weather in Mexicali — Graph

°F

Mexicali Temperature Yesterday

Maximum temperature yesterday: 65 °F (at 2:53 pm)
Minimum temperature yesterday: 51 °F (at 8:53 pm)
Average temperature yesterday: 57 °F

High & Low Weather Summary for the Past Weeks

 TemperatureHumidityPressure
High72 °F (Jan 9, 1:53 pm)100% (Jan 16, 7:37 am)30.32 "Hg (Jan 16, 7:37 am)
Low42 °F (Jan 7, 3:53 am)24% (Jan 17, 1:53 pm)29.44 "Hg (Jan 20, 3:53 pm)
Average57 °F62%30.00 "Hg
* Reported Jan 6 11:53 am — Jan 21 11:53 am, Mexicali, Weather by CustomWeather, © 2017

Note: Actual official high and low records may vary slightly from our data, if they occured in-between our weather recording intervals... More about our weather records

Advertising

Mexicali Weather History for the Previous 24 Hours

Scroll right to see more
 ConditionsComfort  
Time TempWeatherWind HumidityBarometerVisibility
11:53 am
Sat, Jan 21
63 °FSunny.21 mph47%29.86 "Hg10 mi
10:53 am61 °FSunny.18 mph52%29.87 "Hg10 mi
8:53 am56 °FSunny.12 mph53%29.82 "Hg10 mi
7:53 am55 °FSunny.18 mph51%29.78 "Hg10 mi
6:53 am49 °FSunny.7 mph71%29.73 "Hg10 mi
5:53 am51 °FClear.No wind63%29.70 "Hg10 mi
4:53 am51 °FClear.8 mph66%29.66 "Hg10 mi
3:53 am50 °FPassing clouds.12 mph71%29.62 "Hg10 mi
2:53 am51 °FPassing clouds.8 mph71%29.62 "Hg10 mi
1:53 am53 °FClear.7 mph66%29.59 "Hg10 mi
12:53 am52 °FPassing clouds.7 mph69%29.56 "Hg10 mi
11:53 pm
Fri, Jan 20
52 °FPassing clouds.12 mph75%29.54 "Hg10 mi
10:53 pm52 °FPartly cloudy.9 mph75%29.56 "Hg10 mi
9:53 pm55 °FPassing clouds.13 mph64%29.55 "Hg10 mi
8:53 pm51 °FPassing clouds.7 mph86%29.53 "Hg10 mi
7:53 pm54 °FPassing clouds.9 mph77%29.52 "Hg10 mi
6:53 pm56 °FLight rain. Mostly cloudy.15 mph81%29.49 "Hg10 mi
6:36 pm57 °FLight rain. Passing clouds.16 mph74%29.48 "Hg8 mi
5:53 pm56 °FPassing clouds.12 mph77%29.46 "Hg10 mi
4:53 pm56 °FRain. Mostly cloudy.12 mph81%29.49 "Hg7 mi
3:53 pm60 °FLight rain. Mostly cloudy.14 mph62%29.44 "Hg8 mi
2:53 pm65 °FMostly cloudy.9 mph49%29.46 "Hg10 mi
1:53 pm64 °FOvercast.9 mph56%29.52 "Hg10 mi
Weather by CustomWeather, © 2017

See weather overviewHow to use our weather pages